• In Hungary
  • List of Countries
  • For 7 days
  • Water Temperature
  • Satellite Maps
  • Weather Map
  • News
  • Weather Widgets
  • user-avatar
    Login

    Hourly Weather Chishma-Buraevo

    Today, 24 September, Monday

    Time Temperature Precipitation Wind Pressure Humidity
    00:00 +14°C° 0 mm 3 mps 754 mmHg 94%
    01:00 +14°C° 0 mm 3 mps 754 mmHg 95%
    02:00 +14°C° 0 mm 3 mps 754 mmHg 95%
    03:00 +14°C° 0 mm 3 mps 753 mmHg 95%
    04:00 +14°C° 0 mm 2 mps 753 mmHg 95%
    05:00 +13°C° 0 mm 3 mps 753 mmHg 95%
    06:00 +13°C° 0 mm 3 mps 753 mmHg 94%
    07:00 +13°C° 0 mm 3 mps 753 mmHg 94%
    08:00 +15°C° 0 mm 4 mps 753 mmHg 87%
    09:00 +17°C° 0 mm 4 mps 753 mmHg 81%
    10:00 +19°C° 0 mm 5 mps 753 mmHg 74%
    11:00 +20°C° 0 mm 5 mps 753 mmHg 69%
    12:00 +21°C° 0 mm 5 mps 753 mmHg 64%
    13:00 +22°C° 0 mm 6 mps 753 mmHg 59%
    14:00 +22°C° 0 mm 5 mps 752 mmHg 60%
    15:00 +22°C° 0 mm 5 mps 752 mmHg 61%
    16:00 +22°C° 0 mm 4 mps 752 mmHg 62%
    17:00 +20°C° 0 mm 4 mps 752 mmHg 67%
    18:00 +18°C° 0 mm 3 mps 752 mmHg 72%
    19:00 +17°C° 0 mm 3 mps 752 mmHg 78%
    20:00 +16°C° 0 mm 3 mps 752 mmHg 78%
    21:00 +16°C° 0 mm 3 mps 752 mmHg 78%
    22:00 +14°C° 0 mm 4 mps 752 mmHg 78%
    23:00 +14°C° 0 mm 4 mps 752 mmHg 79%

    Tomorrow, 25 September, Tuesday

    Time Temperature Precipitation Wind Pressure Humidity
    00:00 +13°C° 0 mm 4 mps 752 mmHg 79%
    01:00 +13°C° 0 mm 4 mps 752 mmHg 79%
    02:00 +13°C° 0 mm 4 mps 752 mmHg 79%
    03:00 +12°C° 0 mm 4 mps 752 mmHg 78%
    04:00 +12°C° 0 mm 4 mps 752 mmHg 77%
    05:00 +12°C° 0 mm 4 mps 752 mmHg 76%
    06:00 +12°C° 0 mm 4 mps 752 mmHg 75%
    07:00 +12°C° 0 mm 4 mps 752 mmHg 74%
    08:00 +14°C° 0 mm 5 mps 752 mmHg 69%
    09:00 +15°C° 0 mm 6 mps 752 mmHg 63%
    10:00 +17°C° 0 mm 7 mps 752 mmHg 58%
    11:00 +18°C° 0 mm 7 mps 752 mmHg 56%
    12:00 +20°C° 0 mm 7 mps 752 mmHg 54%
    13:00 +21°C° 0 mm 8 mps 752 mmHg 51%
    14:00 +21°C° 0 mm 7 mps 752 mmHg 53%
    15:00 +21°C° 0 mm 6 mps 752 mmHg 55%
    16:00 +21°C° 0 mm 6 mps 751 mmHg 57%
    17:00 +20°C° 0 mm 5 mps 751 mmHg 60%
    18:00 +19°C° 0 mm 5 mps 751 mmHg 63%
    19:00 +16°C° 0 mm 5 mps 751 mmHg 66%
    20:00 +16°C° 0 mm 5 mps 751 mmHg 68%
    21:00 +15°C° 0 mm 5 mps 752 mmHg 69%
    22:00 +14°C° 0 mm 4 mps 752 mmHg 71%
    23:00 +14°C° 0 mm 5 mps 752 mmHg 70%

    Day after tomorrow, 26 September, Wednesday

    Time Temperature Precipitation Wind Pressure Humidity
    00:00 +14°C° 0 mm 5 mps 752 mmHg 70%
    01:00 +13°C° 0 mm 5 mps 752 mmHg 69%
    02:00 +13°C° 0.1 mm 5 mps 752 mmHg 68%
    03:00 +13°C° 0.1 mm 5 mps 752 mmHg 67%
    04:00 +13°C° 0.1 mm 5 mps 752 mmHg 66%
    05:00 +13°C° 0.2 mm 5 mps 752 mmHg 68%
    06:00 +13°C° 0.2 mm 6 mps 752 mmHg 69%
    07:00 +13°C° 0.2 mm 6 mps 752 mmHg 70%
    08:00 +14°C° 0 mm 6 mps 752 mmHg 68%
    09:00 +14°C° 0 mm 6 mps 752 mmHg 67%
    10:00 +15°C° 0 mm 6 mps 753 mmHg 65%
    11:00 +15°C° 0.1 mm 6 mps 753 mmHg 65%
    12:00 +15°C° 0.1 mm 6 mps 753 mmHg 65%
    13:00 +15°C° 0.1 mm 6 mps 754 mmHg 66%
    14:00 +14°C° 0.8 mm 5 mps 754 mmHg 73%
    15:00 +13°C° 0.8 mm 4 mps 754 mmHg 80%
    16:00 +12°C° 0.8 mm 3 mps 754 mmHg 87%
    17:00 +11°C° 0.7 mm 3 mps 754 mmHg 88%
    18:00 +11°C° 0.7 mm 3 mps 755 mmHg 90%
    19:00 +10°C° 0.7 mm 3 mps 755 mmHg 91%
    20:00 +10°C° 0 mm 3 mps 755 mmHg 91%
    21:00 +10°C° 0 mm 3 mps 755 mmHg 91%
    22:00 +9°C° 0 mm 3 mps 755 mmHg 91%
    23:00 +9°C° 0.1 mm 3 mps 755 mmHg 91%

    27 September, Thursday

    Time Temperature Precipitation Wind Pressure Humidity
    00:00 +9°C° 0.1 mm 3 mps 755 mmHg 91%
    01:00 +9°C° 0.1 mm 3 mps 755 mmHg 91%
    02:00 +9°C° 0.1 mm 3 mps 755 mmHg 91%
    03:00 +9°C° 0.1 mm 3 mps 755 mmHg 91%
    04:00 +8°C° 0.1 mm 3 mps 755 mmHg 91%
    05:00 +8°C° 0 mm 3 mps 755 mmHg 91%
    06:00 +8°C° 0 mm 3 mps 754 mmHg 91%
    07:00 +8°C° 0 mm 3 mps 754 mmHg 91%
    08:00 +7°C° 0 mm 4 mps 754 mmHg 86%
    09:00 +8°C° 0 mm 5 mps 754 mmHg 80%
    10:00 +9°C° 0 mm 5 mps 754 mmHg 74%
    11:00 +9°C° 0 mm 6 mps 753 mmHg 73%
    12:00 +9°C° 0 mm 6 mps 753 mmHg 72%
    13:00 +9°C° 0 mm 6 mps 752 mmHg 71%
    14:00 +9°C° 0 mm 6 mps 752 mmHg 71%
    15:00 +8°C° 0 mm 6 mps 752 mmHg 71%
    16:00 +8°C° 0 mm 6 mps 751 mmHg 71%
    17:00 +8°C° 0 mm 5 mps 751 mmHg 72%
    18:00 +7°C° 0 mm 5 mps 751 mmHg 72%
    19:00 +6°C° 0 mm 5 mps 751 mmHg 73%
    20:00 +6°C° 0 mm 5 mps 750 mmHg 71%
    21:00 +6°C° 0 mm 5 mps 750 mmHg 69%
    22:00 +5°C° 0 mm 6 mps 749 mmHg 67%
    23:00 +5°C° 0.1 mm 6 mps 748 mmHg 68%

    28 September, Friday

    Time Temperature Precipitation Wind Pressure Humidity
    00:00 +5°C° 0.1 mm 6 mps 748 mmHg 69%
    01:00 +5°C° 0.1 mm 7 mps 747 mmHg 70%
    02:00 +5°C° 0.6 mm 7 mps 747 mmHg 75%
    03:00 +4°C° 0.6 mm 7 mps 746 mmHg 79%
    04:00 +4°C° 0.6 mm 7 mps 745 mmHg 83%
    05:00 +4°C° 0.3 mm 7 mps 745 mmHg 85%
    06:00 +4°C° 0.3 mm 6 mps 745 mmHg 86%
    07:00 +4°C° 0.3 mm 6 mps 745 mmHg 87%
    08:00 +5°C° 0.2 mm 6 mps 745 mmHg 85%
    09:00 +7°C° 0.2 mm 6 mps 745 mmHg 82%
    10:00 +6°C° 0.2 mm 7 mps 745 mmHg 80%
    11:00 +8°C° 0.4 mm 7 mps 745 mmHg 74%
    12:00 +9°C° 0.4 mm 7 mps 745 mmHg 68%
    13:00 +9°C° 0.4 mm 7 mps 745 mmHg 63%
    14:00 +9°C° 0.2 mm 7 mps 746 mmHg 63%
    15:00 +9°C° 0.2 mm 7 mps 746 mmHg 62%
    16:00 +9°C° 0.2 mm 6 mps 747 mmHg 62%
    17:00 +8°C° 0 mm 5 mps 747 mmHg 67%
    18:00 +7°C° 0 mm 4 mps 747 mmHg 72%
    19:00 +7°C° 0 mm 3 mps 747 mmHg 77%
    20:00 +7°C° 0.1 mm 3 mps 747 mmHg 79%
    21:00 +6°C° 0.1 mm 4 mps 747 mmHg 80%
    22:00 +6°C° 0.1 mm 4 mps 747 mmHg 82%
    23:00 +6°C° 1.3 mm 5 mps 745 mmHg 86%

    29 September, Saturday

    Time Temperature Precipitation Wind Pressure Humidity
    00:00 +6°C° 1.3 mm 5 mps 744 mmHg 89%
    01:00 +5°C° 1.3 mm 6 mps 743 mmHg 93%
    02:00 +6°C° 1.6 mm 7 mps 742 mmHg 91%
    03:00 +8°C° 1.6 mm 7 mps 741 mmHg 90%
    04:00 +9°C° 1.6 mm 8 mps 740 mmHg 89%
    05:00 +9°C° 0.1 mm 8 mps 741 mmHg 87%
    06:00 +7°C° 0.1 mm 9 mps 741 mmHg 85%
    07:00 +6°C° 0.1 mm 9 mps 742 mmHg 83%
    08:00 +6°C° 0.1 mm 9 mps 743 mmHg 81%
    09:00 +6°C° 0.1 mm 10 mps 745 mmHg 79%
    10:00 +5°C° 0.1 mm 10 mps 746 mmHg 76%
    11:00 +6°C° 0 mm 9 mps 747 mmHg 73%
    12:00 +6°C° 0 mm 9 mps 749 mmHg 70%
    13:00 +7°C° 0 mm 8 mps 750 mmHg 66%
    14:00 +8°C° 0 mm 7 mps 751 mmHg 64%
    15:00 +8°C° 0 mm 6 mps 752 mmHg 62%
    16:00 +8°C° 0 mm 6 mps 753 mmHg 60%
    17:00 +7°C° 0 mm 5 mps 753 mmHg 64%
    18:00 +6°C° 0 mm 4 mps 754 mmHg 68%
    19:00 +5°C° 0 mm 3 mps 755 mmHg 72%
    20:00 +6°C° 0 mm 2 mps 755 mmHg 75%
    21:00 +5°C° 0 mm 2 mps 755 mmHg 78%
    22:00 +4°C° 0 mm 2 mps 756 mmHg 80%
    23:00 +4°C° 0 mm 2 mps 756 mmHg 81%
    Show more